GW4412 Weather Reports


time (UTC)temp
C
wind
direction
speed
KPH
gust
KPH
rain 1hr
cm
rain 24hr
cm
rain mn
cm
humidity
%
barometer
mb
20260504050512 6 335 0.0 0.0 0.00 0.00 0.00 80 1020.0
20260504050012 5 332 0.0 0.0 0.00 0.00 0.00 80 1020.0
20260504045512 5 344 0.0 0.0 0.00 0.00 0.00 81 1020.0
20260504045013 4 6 0.0 0.0 0.00 0.00 0.00 83 1020.0
20260504044512 4 252 0.0 0.0 0.00 0.00 0.00 84 1020.0
20260504044013 4 234 0.0 0.0 0.00 0.00 0.00 83 1020.0
20260504043512 5 180 0.0 0.0 0.00 0.00 0.00 82 1020.0
20260504043012 4 97 0.0 0.0 0.00 0.00 0.00 83 1020.0
20260504042512 3 348 0.0 0.0 0.00 0.00 0.00 84 1020.0
20260504042012 3 246 0.0 0.0 0.00 0.00 0.00 85 1020.0
20260504041512 3 294 0.0 0.0 0.00 0.00 0.00 86 1020.0
20260504041012 3 120 0.0 0.0 0.00 0.00 0.00 87 1019.0
20260504040512 3 12 0.0 0.0 0.00 0.00 0.00 87 1019.0
20260504040013 3 322 0.0 0.0 0.00 0.00 0.00 87 1019.0
20260504035515 3 30 0.0 0.0 0.00 0.00 0.00 87 1019.0
20260504035012 3 354 0.0 0.0 0.00 0.00 0.00 87 1019.0
20260504034513 3 60 0.0 0.0 0.00 0.00 0.00 88 1019.0
20260504034012 3 102 0.0 0.0 0.00 0.00 0.00 87 1019.0
20260504033512 3 102 0.0 0.0 0.00 0.00 0.00 87 1019.0
20260504033012 3 36 0.0 0.0 0.00 0.00 0.00 87 1019.0
20260504032512 2 114 0.0 0.0 0.00 0.00 0.00 87 1019.0
20260504032012 2 142 0.0 0.0 0.00 0.00 0.00 87 1019.0
20260504031513 2 142 0.0 0.0 0.00 0.00 0.00 86 1019.0
20260504031013 3 216 0.0 0.0 0.00 0.00 0.00 86 1019.0
20260504030512 3 278 0.0 0.0 0.00 0.00 0.00 86 1019.0
20260504030013 3 240 0.0 0.0 0.00 0.00 0.00 86 1019.0
20260504025512 3 120 0.0 0.0 0.00 0.00 0.00 86 1019.0
20260504025012 3 289 0.0 0.0 0.00 0.00 0.00 85 1019.0
20260504024512 3 96 0.0 0.0 0.00 0.00 0.00 85 1019.0
20260504024012 3 36 0.0 0.0 0.00 0.00 0.00 85 1019.0
20260504023512 3 356 0.0 0.0 0.00 0.00 0.00 85 1019.0
20260504023012 3 48 0.0 0.0 0.00 0.00 0.00 85 1019.0
20260504022513 3 180 0.0 0.0 0.00 0.00 0.00 86 1019.0
20260504022012 3 18 0.0 0.0 0.00 0.00 0.00 86 1019.0
20260504021513 3 42 0.0 0.0 0.00 0.00 0.00 86 1019.0
20260504021012 3 290 4.8 4.8 0.00 0.00 0.00 85 1019.0
20260504020512 3 204 0.0 0.0 0.00 0.00 0.00 85 1019.0
20260504020012 3 294 0.0 0.0 0.00 0.00 0.00 85 1019.0
20260504015512 3 144 0.0 0.0 0.00 0.00 0.00 86 1019.0
20260504015012 3 91 0.0 0.0 0.00 0.00 0.00 87 1019.0
20260504014512 3 264 0.0 0.0 0.00 0.00 0.00 87 1019.0
20260504014013 3 180 0.0 0.0 0.00 0.00 0.00 86 1019.0
20260504013512 3 186 0.0 0.0 0.00 0.00 0.00 86 1019.0
20260504013012 3 264 0.0 0.0 0.00 0.00 0.00 86 1019.0
20260504012512 3 258 0.0 0.0 0.00 0.00 0.00 86 1019.0
20260504012012 3 36 0.0 0.0 0.00 0.00 0.00 86 1019.0
20260504011513 3 258 0.0 0.0 0.00 0.00 0.00 86 1019.0
20260504011012 4 270 0.0 0.0 0.00 0.00 0.00 85 1019.0
20260504010513 4 279 0.0 0.0 0.00 0.00 0.00 85 1019.0
20260504010012 4 279 0.0 0.0 0.00 0.00 0.00 85 1019.0
20260504005512 4 270 0.0 0.0 0.00 0.00 0.00 85 1019.0
20260504005012 4 168 0.0 0.0 0.00 0.00 0.00 84 1019.0
20260504004513 4 6 0.0 0.0 0.00 0.00 0.00 84 1019.0
20260504004013 4 0 0.0 0.0 0.00 0.00 0.00 83 1019.0
20260504003512 5 309 0.0 0.0 0.00 0.00 0.00 82 1019.0
20260504003012 5 132 0.0 0.0 0.00 0.00 0.00 82 1019.0
20260504002515 5 108 0.0 0.0 0.00 0.00 0.00 83 1019.0
20260504002013 5 108 0.0 0.0 0.00 0.00 0.00 83 1019.0
20260504001512 4 108 0.0 0.0 0.00 0.00 0.00 83 1019.0
20260504001012 5 108 0.0 0.0 0.00 0.00 0.00 83 1019.0
20260504000512 5 48 0.0 0.0 0.00 0.00 0.00 84 1019.0
20260503151012 12 266 9.7 9.7 0.00 0.00 0.46 53 1018.0
20260503150512 12 317 0.0 0.0 0.00 0.00 0.46 57 1018.0
20260503131012 10 348 4.8 4.8 0.15 0.00 0.46 77 1019.0
20260503130512 10 322 3.2 3.2 0.00 0.00 0.43 72 1019.0
20260503110512 9 174 0.0 0.0 0.00 0.00 0.41 73 1019.0